Time,TemperatureF,DewpointF,PressureIn,WindDirection,WindDirectionDegrees,WindSpeedMPH,WindSpeedGustMPH,Humidity,HourlyPrecipIn,Conditions,Clouds,dailyrainin,SoftwareType,DateUTC
2013-01-05 00:00:00,34.2,21.8,29.98,WSW,248,1.8,6.3,60,0.00,,,0.00,WUHU216HW,2013-01-05 05:00:00,
2013-01-05 00:02:00,34.2,21.8,29.98,WSW,248,3.6,6.3,60,0.00,,,0.00,WUHU216HW,2013-01-05 05:02:00,
2013-01-05 00:07:00,34.2,21.8,29.98,WSW,248,4.7,6.3,60,0.00,,,0.00,WUHU216HW,2013-01-05 05:07:00,
2013-01-05 00:12:00,34.2,21.8,29.98,West,270,2.0,4.7,60,0.00,,,0.00,WUHU216HW,2013-01-05 05:12:00,
2013-01-05 00:17:00,34.2,21.8,29.99,WSW,248,2.0,4.7,60,0.00,,,0.00,WUHU216HW,2013-01-05 05:17:00,
2013-01-05 00:22:00,34.0,21.6,29.98,WSW,248,3.1,4.0,60,0.00,,,0.00,WUHU216HW,2013-01-05 05:22:00,
2013-01-05 00:27:00,34.0,21.6,29.99,WSW,248,6.3,6.9,60,0.00,,,0.00,WUHU216HW,2013-01-05 05:27:00,
2013-01-05 00:32:00,34.2,21.8,29.98,WSW,248,1.6,6.9,60,0.00,,,0.00,WUHU216HW,2013-01-05 05:32:00,
2013-01-05 00:37:00,34.0,21.6,29.99,WSW,248,2.2,6.3,60,0.00,,,0.00,WUHU216HW,2013-01-05 05:37:00,
2013-01-05 00:42:00,34.0,21.6,29.98,NW,315,1.6,4.0,60,0.00,,,0.00,WUHU216HW,2013-01-05 05:42:00,
2013-01-05 00:47:00,34.0,21.6,29.99,West,270,1.8,4.0,60,0.00,,,0.00,WUHU216HW,2013-01-05 05:47:00,
2013-01-05 00:52:00,33.8,21.4,29.99,West,270,1.1,4.5,60,0.00,,,0.00,WUHU216HW,2013-01-05 05:52:00,
2013-01-05 00:57:00,33.8,21.4,29.99,West,270,4.5,4.7,60,0.00,,,0.00,WUHU216HW,2013-01-05 05:57:00,
2013-01-05 01:02:00,33.8,21.4,29.99,North,0,2.0,4.7,60,0.00,,,0.00,WUHU216HW,2013-01-05 06:02:00,
2013-01-05 01:07:00,33.8,21.4,29.99,WSW,248,0.7,4.5,60,0.00,,,0.00,WUHU216HW,2013-01-05 06:07:00,
2013-01-05 01:12:00,33.8,21.0,30.00,SW,225,4.5,4.5,59,0.00,,,0.00,WUHU216HW,2013-01-05 06:12:00,
2013-01-05 01:17:00,33.8,21.0,30.00,SW,225,3.4,6.3,59,0.00,,,0.00,WUHU216HW,2013-01-05 06:17:00,
2013-01-05 01:22:00,33.8,21.0,30.00,WSW,248,2.2,6.3,59,0.00,,,0.00,WUHU216HW,2013-01-05 06:22:00,
2013-01-05 01:27:00,33.8,21.0,30.00,WSW,248,4.0,5.4,59,0.00,,,0.00,WUHU216HW,2013-01-05 06:27:00,
2013-01-05 01:32:00,33.8,21.0,30.00,WNW,293,3.6,5.4,59,0.00,,,0.00,WUHU216HW,2013-01-05 06:32:00,
2013-01-05 01:37:00,33.8,21.0,30.00,WSW,248,1.8,4.7,59,0.00,,,0.00,WUHU216HW,2013-01-05 06:37:00,
2013-01-05 01:42:00,33.8,21.0,30.00,SW,225,3.1,4.7,59,0.00,,,0.00,WUHU216HW,2013-01-05 06:42:00,
2013-01-05 01:47:00,33.8,21.0,30.01,WNW,293,4.0,4.5,59,0.00,,,0.00,WUHU216HW,2013-01-05 06:47:00,
2013-01-05 01:52:00,33.8,20.5,30.01,ESE,113,0.7,4.7,58,0.00,,,0.00,WUHU216HW,2013-01-05 06:52:00,
2013-01-05 01:57:00,34.0,20.7,30.01,North,0,2.0,4.7,58,0.00,,,0.00,WUHU216HW,2013-01-05 06:57:00,
2013-01-05 02:02:00,34.0,20.7,30.01,SW,225,1.6,3.6,58,0.00,,,0.00,WUHU216HW,2013-01-05 07:02:00,
2013-01-05 02:07:00,34.0,20.7,30.01,SW,225,2.9,5.4,58,0.00,,,0.00,WUHU216HW,2013-01-05 07:07:00,
2013-01-05 02:12:00,33.8,20.5,30.02,ENE,68,0.0,5.4,58,0.00,,,0.00,WUHU216HW,2013-01-05 07:12:00,
2013-01-05 02:17:00,33.8,20.5,30.02,WSW,248,0.9,3.8,58,0.00,,,0.00,WUHU216HW,2013-01-05 07:17:00,
2013-01-05 02:22:00,33.8,20.5,30.02,SSW,203,0.4,4.0,58,0.00,,,0.00,WUHU216HW,2013-01-05 07:22:00,
2013-01-05 02:27:00,33.8,20.2,30.03,WSW,248,4.0,6.9,57,0.00,,,0.00,WUHU216HW,2013-01-05 07:27:00,
2013-01-05 02:32:00,33.8,20.2,30.03,NNW,338,2.5,6.9,57,0.00,,,0.00,WUHU216HW,2013-01-05 07:32:00,
2013-01-05 02:37:00,33.8,20.2,30.03,NW,315,1.8,5.6,57,0.00,,,0.00,WUHU216HW,2013-01-05 07:37:00,
2013-01-05 02:42:00,33.8,20.2,30.03,West,270,2.5,5.4,57,0.00,,,0.00,WUHU216HW,2013-01-05 07:42:00,
2013-01-05 02:47:00,33.8,20.2,30.04,WSW,248,0.9,3.4,57,0.00,,,0.00,WUHU216HW,2013-01-05 07:47:00,
2013-01-05 02:52:00,33.5,19.8,30.04,WSW,248,2.0,4.0,57,0.00,,,0.00,WUHU216HW,2013-01-05 07:52:00,
2013-01-05 02:57:00,33.5,19.8,30.04,West,270,2.2,5.4,57,0.00,,,0.00,WUHU216HW,2013-01-05 07:57:00,
2013-01-05 03:02:00,33.5,19.8,30.05,NNW,338,1.6,5.4,57,0.00,,,0.00,WUHU216HW,2013-01-05 08:02:00,
2013-01-05 03:07:00,33.5,19.8,30.05,West,270,2.0,4.9,57,0.00,,,0.00,WUHU216HW,2013-01-05 08:07:00,
2013-01-05 03:12:00,33.5,19.8,30.05,West,270,1.6,4.9,57,0.00,,,0.00,WUHU216HW,2013-01-05 08:12:00,
2013-01-05 03:17:00,33.5,19.8,30.06,West,270,2.0,4.0,57,0.00,,,0.00,WUHU216HW,2013-01-05 08:17:00,
2013-01-05 03:22:00,33.5,19.8,30.05,NW,315,1.1,4.0,57,0.00,,,0.00,WUHU216HW,2013-01-05 08:22:00,
2013-01-05 03:27:00,33.3,19.6,30.05,WNW,293,2.5,3.8,57,0.00,,,0.00,WUHU216HW,2013-01-05 08:27:00,
2013-01-05 03:32:00,33.3,20.1,30.05,NW,315,4.7,4.9,58,0.00,,,0.00,WUHU216HW,2013-01-05 08:32:00,
2013-01-05 03:37:00,33.3,20.1,30.06,NW,315,1.1,4.9,58,0.00,,,0.00,WUHU216HW,2013-01-05 08:37:00,
2013-01-05 03:42:00,33.3,20.1,30.06,West,270,1.8,4.9,58,0.00,,,0.00,WUHU216HW,2013-01-05 08:42:00,
2013-01-05 03:47:00,33.1,19.9,30.06,SW,225,0.9,4.3,58,0.00,,,0.00,WUHU216HW,2013-01-05 08:47:00,
2013-01-05 03:52:00,33.1,19.4,30.06,North,0,1.6,6.3,57,0.00,,,0.00,WUHU216HW,2013-01-05 08:52:00,
2013-01-05 03:57:00,33.1,19.4,30.06,West,270,0.4,6.3,57,0.00,,,0.00,WUHU216HW,2013-01-05 08:57:00,
2013-01-05 04:02:00,33.1,19.4,30.06,North,0,3.1,4.5,57,0.00,,,0.00,WUHU216HW,2013-01-05 09:02:00,
2013-01-05 04:07:00,33.1,19.9,30.06,SW,225,1.8,5.6,58,0.00,,,0.00,WUHU216HW,2013-01-05 09:07:00,
2013-01-05 04:12:00,33.1,19.4,30.06,West,270,2.2,9.2,57,0.00,,,0.00,WUHU216HW,2013-01-05 09:12:00,
2013-01-05 04:17:00,33.1,19.4,30.07,ENE,68,1.8,9.2,57,0.00,,,0.00,WUHU216HW,2013-01-05 09:17:00,
2013-01-05 04:22:00,32.9,19.7,30.07,WNW,293,0.2,4.3,58,0.00,,,0.00,WUHU216HW,2013-01-05 09:22:00,
2013-01-05 04:27:00,32.9,19.7,30.07,WNW,293,0.7,4.3,58,0.00,,,0.00,WUHU216HW,2013-01-05 09:27:00,
2013-01-05 04:32:00,32.8,19.6,30.07,WNW,293,0.9,4.0,58,0.00,,,0.00,WUHU216HW,2013-01-05 09:32:00,
2013-01-05 04:37:00,32.8,19.6,30.07,WSW,248,2.9,3.4,58,0.00,,,0.00,WUHU216HW,2013-01-05 09:37:00,
2013-01-05 04:42:00,32.8,19.6,30.07,NNE,23,3.4,4.7,58,0.00,,,0.00,WUHU216HW,2013-01-05 09:42:00,
2013-01-05 04:47:00,32.8,19.6,30.08,WSW,248,3.4,5.6,58,0.00,,,0.00,WUHU216HW,2013-01-05 09:47:00,
2013-01-05 04:52:00,32.8,19.6,30.08,WNW,293,2.0,6.3,58,0.00,,,0.00,WUHU216HW,2013-01-05 09:52:00,
2013-01-05 04:57:00,32.8,19.6,30.08,WNW,293,1.8,6.3,58,0.00,,,0.00,WUHU216HW,2013-01-05 09:57:00,
2013-01-05 05:02:00,32.8,19.6,30.08,South,180,1.3,6.3,58,0.00,,,0.00,WUHU216HW,2013-01-05 10:02:00,
2013-01-05 05:07:00,32.8,20.0,30.09,WSW,248,4.3,5.4,59,0.00,,,0.00,WUHU216HW,2013-01-05 10:07:00,
2013-01-05 05:12:00,32.8,20.0,30.09,NNE,23,1.1,5.4,59,0.00,,,0.00,WUHU216HW,2013-01-05 10:12:00,
2013-01-05 05:17:00,32.8,20.0,30.09,SSW,203,3.4,4.3,59,0.00,,,0.00,WUHU216HW,2013-01-05 10:17:00,
2013-01-05 05:22:00,32.8,20.0,30.09,WSW,248,4.9,5.4,59,0.00,,,0.00,WUHU216HW,2013-01-05 10:22:00,
2013-01-05 05:27:00,32.8,20.0,30.10,WSW,248,3.6,5.4,59,0.00,,,0.00,WUHU216HW,2013-01-05 10:27:00,
2013-01-05 05:32:00,32.8,20.0,30.10,West,270,3.4,4.5,59,0.00,,,0.00,WUHU216HW,2013-01-05 10:32:00,
2013-01-05 05:37:00,32.8,20.0,30.10,WSW,248,3.6,4.7,59,0.00,,,0.00,WUHU216HW,2013-01-05 10:37:00,
2013-01-05 05:42:00,32.8,20.0,30.11,WSW,248,2.2,6.3,59,0.00,,,0.00,WUHU216HW,2013-01-05 10:42:00,
2013-01-05 05:47:00,32.8,20.0,30.11,WSW,248,3.4,6.3,59,0.00,,,0.00,WUHU216HW,2013-01-05 10:47:00,
2013-01-05 05:52:00,32.8,20.0,30.11,WNW,293,2.2,5.8,59,0.00,,,0.00,WUHU216HW,2013-01-05 10:52:00,
2013-01-05 05:57:00,32.8,20.0,30.11,WSW,248,1.6,5.8,59,0.00,,,0.00,WUHU216HW,2013-01-05 10:57:00,
2013-01-05 06:02:00,32.8,20.0,30.11,West,270,4.9,6.9,59,0.00,,,0.00,WUHU216HW,2013-01-05 11:02:00,
2013-01-05 06:07:00,32.8,20.0,30.11,West,270,4.0,6.9,59,0.00,,,0.00,WUHU216HW,2013-01-05 11:07:00,
2013-01-05 06:12:00,32.8,20.4,30.12,WSW,248,2.9,6.3,60,0.00,,,0.00,WUHU216HW,2013-01-05 11:12:00,
2013-01-05 06:17:00,32.8,20.4,30.12,SW,225,4.0,6.3,60,0.00,,,0.00,WUHU216HW,2013-01-05 11:17:00,
2013-01-05 06:22:00,32.8,20.4,30.13,WNW,293,1.8,8.7,60,0.00,,,0.00,WUHU216HW,2013-01-05 11:22:00,
2013-01-05 06:27:00,32.9,20.6,30.13,SSE,158,2.5,8.7,60,0.00,,,0.00,WUHU216HW,2013-01-05 11:27:00,
2013-01-05 06:32:00,32.9,20.6,30.13,WSW,248,2.5,7.4,60,0.00,,,0.00,WUHU216HW,2013-01-05 11:32:00,
2013-01-05 06:37:00,32.9,20.6,30.13,SW,225,4.7,7.4,60,0.00,,,0.00,WUHU216HW,2013-01-05 11:37:00,
2013-01-05 06:42:00,32.9,20.6,30.13,WSW,248,4.0,4.7,60,0.00,,,0.00,WUHU216HW,2013-01-05 11:42:00,
2013-01-05 06:47:00,32.9,20.6,30.14,WSW,248,4.3,6.9,60,0.00,,,0.00,WUHU216HW,2013-01-05 11:47:00,
2013-01-05 06:52:00,32.8,20.4,30.14,SE,135,3.4,6.9,60,0.00,,,0.00,WUHU216HW,2013-01-05 11:52:00,
2013-01-05 06:57:00,32.8,20.4,30.15,West,270,1.8,6.3,60,0.00,,,0.00,WUHU216HW,2013-01-05 11:57:00,
2013-01-05 07:02:00,32.8,20.4,30.15,West,270,3.8,6.0,60,0.00,,,0.00,WUHU216HW,2013-01-05 12:02:00,
2013-01-05 07:07:00,32.8,20.4,30.16,South,180,2.7,6.0,60,0.00,,,0.00,WUHU216HW,2013-01-05 12:07:00,
2013-01-05 07:12:00,32.8,20.4,30.16,WNW,293,3.1,5.4,60,0.00,,,0.00,WUHU216HW,2013-01-05 12:12:00,
2013-01-05 07:17:00,32.8,20.4,30.16,WSW,248,2.2,5.4,60,0.00,,,0.00,WUHU216HW,2013-01-05 12:17:00,
2013-01-05 07:22:00,32.6,20.6,30.16,WSW,248,0.9,4.9,61,0.00,,,0.00,WUHU216HW,2013-01-05 12:22:00,
2013-01-05 07:27:00,32.6,20.6,30.16,SW,225,2.2,4.9,61,0.00,,,0.00,WUHU216HW,2013-01-05 12:27:00,
2013-01-05 07:32:00,32.6,20.6,30.17,WSW,248,1.8,4.9,61,0.00,,,0.00,WUHU216HW,2013-01-05 12:32:00,
2013-01-05 07:37:00,32.6,20.6,30.18,SSW,203,1.8,4.5,61,0.00,,,0.00,WUHU216HW,2013-01-05 12:37:00,
2013-01-05 07:42:00,32.6,20.6,30.18,SW,225,4.7,4.7,61,0.00,,,0.00,WUHU216HW,2013-01-05 12:42:00,
2013-01-05 07:47:00,32.6,20.6,30.18,WSW,248,3.4,4.7,61,0.00,,,0.00,WUHU216HW,2013-01-05 12:47:00,
2013-01-05 07:52:00,32.6,21.0,30.18,West,270,3.4,4.7,62,0.00,,,0.00,WUHU216HW,2013-01-05 12:52:00,
2013-01-05 07:57:00,32.8,20.8,30.18,WSW,248,0.7,4.7,61,0.00,,,0.00,WUHU216HW,2013-01-05 12:57:00,
2013-01-05 08:02:00,32.8,20.8,30.18,SSW,203,2.9,6.0,61,0.00,,,0.00,WUHU216HW,2013-01-05 13:02:00,
2013-01-05 08:07:00,32.8,20.8,30.19,South,180,2.5,6.0,61,0.00,,,0.00,WUHU216HW,2013-01-05 13:07:00,
2013-01-05 08:12:00,32.8,20.8,30.20,WSW,248,4.3,4.7,61,0.00,,,0.00,WUHU216HW,2013-01-05 13:12:00,
2013-01-05 08:17:00,32.8,21.2,30.20,SW,225,1.8,4.7,62,0.00,,,0.00,WUHU216HW,2013-01-05 13:17:00,
2013-01-05 08:22:00,32.8,21.2,30.19,SW,225,1.1,5.1,62,0.00,,,0.00,WUHU216HW,2013-01-05 13:22:00,
2013-01-05 08:27:00,32.9,21.3,30.20,SW,225,1.1,5.1,62,0.00,,,0.00,WUHU216HW,2013-01-05 13:27:00,
2013-01-05 08:32:00,32.9,21.3,30.20,SW,225,4.0,5.4,62,0.00,,,0.00,WUHU216HW,2013-01-05 13:32:00,
2013-01-05 08:37:00,33.3,21.7,30.20,SW,225,3.6,5.4,62,0.00,,,0.00,WUHU216HW,2013-01-05 13:37:00,
2013-01-05 08:42:00,33.3,21.7,30.20,WSW,248,4.0,4.0,62,0.00,,,0.00,WUHU216HW,2013-01-05 13:42:00,
2013-01-05 08:47:00,33.5,21.8,30.21,WSW,248,2.7,4.7,62,0.00,,,0.00,WUHU216HW,2013-01-05 13:47:00,
2013-01-05 08:52:00,33.8,22.1,30.21,WSW,248,0.9,6.0,62,0.00,,,0.00,WUHU216HW,2013-01-05 13:52:00,
2013-01-05 08:57:00,34.0,22.0,30.21,WSW,248,1.3,6.3,61,0.00,,,0.00,WUHU216HW,2013-01-05 13:57:00,
2013-01-05 09:02:00,34.2,22.1,30.22,NW,315,2.7,6.3,61,0.00,,,0.00,WUHU216HW,2013-01-05 14:02:00,
2013-01-05 09:07:00,34.2,22.1,30.22,West,270,2.0,5.6,61,0.00,,,0.00,WUHU216HW,2013-01-05 14:07:00,
2013-01-05 09:12:00,34.4,22.3,30.22,WSW,248,1.8,5.6,61,0.00,,,0.00,WUHU216HW,2013-01-05 14:12:00,
2013-01-05 09:17:00,34.7,22.7,30.22,WNW,293,0.7,5.1,61,0.00,,,0.00,WUHU216HW,2013-01-05 14:17:00,
2013-01-05 09:22:00,34.7,22.7,30.22,West,270,4.0,5.1,61,0.00,,,0.00,WUHU216HW,2013-01-05 14:22:00,
2013-01-05 09:27:00,34.9,22.5,30.22,WSW,248,4.0,5.4,60,0.00,,,0.00,WUHU216HW,2013-01-05 14:27:00,
2013-01-05 09:32:00,35.3,22.9,30.22,SW,225,2.5,6.3,60,0.00,,,0.00,WUHU216HW,2013-01-05 14:32:00,
2013-01-05 09:37:00,35.3,22.9,30.22,North,0,1.6,6.3,60,0.00,,,0.00,WUHU216HW,2013-01-05 14:37:00,
2013-01-05 09:42:00,35.5,23.0,30.22,NW,315,3.8,5.8,60,0.00,,,0.00,WUHU216HW,2013-01-05 14:42:00,
2013-01-05 09:47:00,35.6,23.2,30.23,NW,315,1.3,4.3,60,0.00,,,0.00,WUHU216HW,2013-01-05 14:47:00,
2013-01-05 09:52:00,35.8,23.4,30.23,West,270,4.7,6.3,60,0.00,,,0.00,WUHU216HW,2013-01-05 14:52:00,
2013-01-05 09:57:00,36.0,23.6,30.23,WNW,293,0.4,6.3,60,0.00,,,0.00,WUHU216HW,2013-01-05 14:57:00,
2013-01-05 10:02:00,36.4,23.9,30.23,WNW,293,2.5,5.1,60,0.00,,,0.00,WUHU216HW,2013-01-05 15:02:00,
2013-01-05 10:07:00,36.5,24.0,30.23,WSW,248,1.8,5.1,60,0.00,,,0.00,WUHU216HW,2013-01-05 15:07:00,
2013-01-05 10:12:00,36.9,24.0,30.23,WSW,248,3.4,4.7,59,0.00,,,0.00,WUHU216HW,2013-01-05 15:12:00,
2013-01-05 10:17:00,37.3,24.2,30.23,NNW,338,3.4,4.7,59,0.00,,,0.00,WUHU216HW,2013-01-05 15:17:00,
2013-01-05 10:22:00,37.6,24.6,30.23,NW,315,0.9,4.7,59,0.00,,,0.00,WUHU216HW,2013-01-05 15:22:00,
2013-01-05 10:27:00,38.2,24.7,30.23,SW,225,3.4,4.7,58,0.00,,,0.00,WUHU216HW,2013-01-05 15:27:00,
2013-01-05 10:32:00,39.1,25.0,30.23,NE,45,4.3,5.8,57,0.00,,,0.00,WUHU216HW,2013-01-05 15:32:00,
2013-01-05 10:37:00,39.6,25.1,30.23,NNW,338,1.6,6.5,56,0.00,,,0.00,WUHU216HW,2013-01-05 15:37:00,
2013-01-05 10:42:00,40.7,25.2,30.23,WNW,293,4.0,6.5,54,0.00,,,0.00,WUHU216HW,2013-01-05 15:42:00,
2013-01-05 10:47:00,41.2,24.4,30.22,NW,315,3.8,7.2,51,0.00,,,0.00,WUHU216HW,2013-01-05 15:47:00,
2013-01-05 10:52:00,41.9,25.1,30.22,NW,315,4.7,7.2,51,0.00,,,0.00,WUHU216HW,2013-01-05 15:52:00,
2013-01-05 10:57:00,42.5,25.2,30.22,West,270,6.5,6.5,50,0.00,,,0.00,WUHU216HW,2013-01-05 15:57:00,
2013-01-05 11:02:00,42.8,25.0,30.22,NNW,338,5.4,6.5,49,0.00,,,0.00,WUHU216HW,2013-01-05 16:02:00,
2013-01-05 11:07:00,43.0,25.2,30.23,North,0,2.2,8.1,49,0.00,,,0.00,WUHU216HW,2013-01-05 16:07:00,
2013-01-05 11:12:00,43.4,26.0,30.23,NNE,23,4.3,8.1,50,0.00,,,0.00,WUHU216HW,2013-01-05 16:12:00,
2013-01-05 11:17:00,43.4,25.5,30.24,NW,315,4.7,6.3,49,0.00,,,0.00,WUHU216HW,2013-01-05 16:17:00,
2013-01-05 11:22:00,43.6,25.7,30.24,WNW,293,3.4,6.3,49,0.00,,,0.00,WUHU216HW,2013-01-05 16:22:00,
2013-01-05 11:27:00,43.9,25.5,30.24,WNW,293,3.6,7.4,48,0.00,,,0.00,WUHU216HW,2013-01-05 16:27:00,
2013-01-05 11:32:00,44.1,25.1,30.24,NNW,338,3.1,7.4,47,0.00,,,0.00,WUHU216HW,2013-01-05 16:32:00,
2013-01-05 11:37:00,44.3,25.7,30.24,NNE,23,2.7,6.9,48,0.00,,,0.00,WUHU216HW,2013-01-05 16:37:00,
2013-01-05 11:42:00,44.5,24.8,30.23,North,0,4.0,6.0,46,0.00,,,0.00,WUHU216HW,2013-01-05 16:42:00,
2013-01-05 11:47:00,44.6,25.0,30.23,NW,315,5.4,6.0,46,0.00,,,0.00,WUHU216HW,2013-01-05 16:47:00,
2013-01-05 11:52:00,45.0,25.4,30.22,West,270,2.0,6.0,46,0.00,,,0.00,WUHU216HW,2013-01-05 16:52:00,
2013-01-05 11:57:00,45.2,26.0,30.22,NW,315,1.8,5.4,47,0.00,,,0.00,WUHU216HW,2013-01-05 16:57:00,
2013-01-05 12:02:00,45.2,24.9,30.22,ENE,68,6.0,6.0,45,0.00,,,0.00,WUHU216HW,2013-01-05 17:02:00,
2013-01-05 12:07:00,45.0,25.4,30.22,NNE,23,5.1,6.0,46,0.00,,,0.00,WUHU216HW,2013-01-05 17:07:00,
2013-01-05 12:12:00,44.8,24.7,30.21,NW,315,5.1,7.6,45,0.00,,,0.00,WUHU216HW,2013-01-05 17:12:00,
2013-01-05 12:17:00,44.8,25.2,30.21,NW,315,2.9,7.6,46,0.00,,,0.00,WUHU216HW,2013-01-05 17:17:00,
2013-01-05 12:22:00,44.8,25.2,30.20,North,0,1.1,7.6,46,0.00,,,0.00,WUHU216HW,2013-01-05 17:22:00,
2013-01-05 12:27:00,45.0,25.4,30.21,WSW,248,2.5,5.8,46,0.00,,,0.00,WUHU216HW,2013-01-05 17:27:00,
2013-01-05 12:32:00,45.0,25.4,30.21,NNW,338,4.0,5.8,46,0.00,,,0.00,WUHU216HW,2013-01-05 17:32:00,
2013-01-05 12:37:00,44.8,24.7,30.21,NW,315,3.8,5.8,45,0.00,,,0.00,WUHU216HW,2013-01-05 17:37:00,
2013-01-05 12:42:00,44.5,24.8,30.20,NW,315,3.8,5.8,46,0.00,,,0.00,WUHU216HW,2013-01-05 17:42:00,
2013-01-05 12:47:00,44.1,25.1,30.20,NW,315,3.6,5.6,47,0.00,,,0.00,WUHU216HW,2013-01-05 17:47:00,
2013-01-05 12:52:00,43.9,24.4,30.20,North,0,4.3,6.0,46,0.00,,,0.00,WUHU216HW,2013-01-05 17:52:00,
2013-01-05 12:57:00,43.6,24.0,30.21,North,0,4.9,7.6,46,0.00,,,0.00,WUHU216HW,2013-01-05 17:57:00,
2013-01-05 13:02:00,43.4,24.4,30.20,NNE,23,3.1,7.6,47,0.00,,,0.00,WUHU216HW,2013-01-05 18:02:00,
2013-01-05 13:07:00,43.4,24.9,30.20,South,180,0.4,4.9,48,0.00,,,0.00,WUHU216HW,2013-01-05 18:07:00,
2013-01-05 13:12:00,43.4,24.4,30.20,NNW,338,2.5,4.7,47,0.00,,,0.00,WUHU216HW,2013-01-05 18:12:00,
2013-01-05 13:17:00,43.4,24.4,30.21,NNE,23,1.6,4.7,47,0.00,,,0.00,WUHU216HW,2013-01-05 18:17:00,
2013-01-05 13:22:00,43.2,24.9,30.21,WSW,248,3.4,3.6,48,0.00,,,0.00,WUHU216HW,2013-01-05 18:22:00,
2013-01-05 13:27:00,43.4,24.9,30.21,SW,225,2.5,4.7,48,0.00,,,0.00,WUHU216HW,2013-01-05 18:27:00,
2013-01-05 13:32:00,43.2,24.9,30.20,WSW,248,2.9,6.3,48,0.00,,,0.00,WUHU216HW,2013-01-05 18:32:00,
2013-01-05 13:37:00,43.0,24.7,30.20,SSW,203,3.1,6.3,48,0.00,,,0.00,WUHU216HW,2013-01-05 18:37:00,
2013-01-05 13:42:00,43.0,24.7,30.20,SSW,203,1.3,4.3,48,0.00,,,0.00,WUHU216HW,2013-01-05 18:42:00,
2013-01-05 13:47:00,42.8,24.5,30.21,WSW,248,3.8,4.3,48,0.00,,,0.00,WUHU216HW,2013-01-05 18:47:00,
2013-01-05 13:52:00,42.8,24.5,30.21,WSW,248,4.0,6.3,48,0.00,,,0.00,WUHU216HW,2013-01-05 18:52:00,
2013-01-05 13:57:00,42.8,25.0,30.21,SSW,203,2.5,6.3,49,0.00,,,0.00,WUHU216HW,2013-01-05 18:57:00,
2013-01-05 14:02:00,42.8,24.5,30.20,WSW,248,1.6,4.7,48,0.00,,,0.00,WUHU216HW,2013-01-05 19:02:00,
2013-01-05 14:07:00,42.8,24.5,30.21,NNE,23,1.1,4.5,48,0.00,,,0.00,WUHU216HW,2013-01-05 19:07:00,
2013-01-05 14:12:00,42.8,24.5,30.20,North,0,1.1,4.5,48,0.00,,,0.00,WUHU216HW,2013-01-05 19:12:00,
2013-01-05 14:17:00,42.8,24.5,30.19,NW,315,1.8,4.3,48,0.00,,,0.00,WUHU216HW,2013-01-05 19:17:00,
2013-01-05 14:22:00,42.8,24.5,30.19,North,0,1.1,3.8,48,0.00,,,0.00,WUHU216HW,2013-01-05 19:22:00,
2013-01-05 14:27:00,42.7,24.3,30.20,NW,315,1.3,3.8,48,0.00,,,0.00,WUHU216HW,2013-01-05 19:27:00,
2013-01-05 14:32:00,42.8,24.5,30.20,WSW,248,2.0,3.1,48,0.00,,,0.00,WUHU216HW,2013-01-05 19:32:00,
2013-01-05 14:37:00,42.8,24.5,30.20,North,0,1.3,4.0,48,0.00,,,0.00,WUHU216HW,2013-01-05 19:37:00,
2013-01-05 14:42:00,42.7,24.3,30.21,SW,225,2.9,4.0,48,0.00,,,0.00,WUHU216HW,2013-01-05 19:42:00,
2013-01-05 14:47:00,42.8,24.5,30.20,NNW,338,2.0,3.4,48,0.00,,,0.00,WUHU216HW,2013-01-05 19:47:00,
2013-01-05 14:52:00,42.7,24.3,30.20,WNW,293,2.0,3.4,48,0.00,,,0.00,WUHU216HW,2013-01-05 19:52:00,
2013-01-05 14:57:00,42.5,24.1,30.20,NNW,338,2.0,3.4,48,0.00,,,0.00,WUHU216HW,2013-01-05 19:57:00,
2013-01-05 15:02:00,42.5,24.1,30.20,NNW,338,1.3,4.0,48,0.00,,,0.00,WUHU216HW,2013-01-05 20:02:00,
2013-01-05 15:07:00,42.5,24.1,30.20,NW,315,2.2,4.0,48,0.00,,,0.00,WUHU216HW,2013-01-05 20:07:00,
2013-01-05 15:12:00,42.3,24.5,30.20,NW,315,3.1,3.8,49,0.00,,,0.00,WUHU216HW,2013-01-05 20:12:00,
2013-01-05 15:17:00,42.3,24.5,30.20,SW,225,0.2,3.4,49,0.00,,,0.00,WUHU216HW,2013-01-05 20:17:00,
2013-01-05 15:22:00,42.1,23.8,30.20,NNW,338,2.0,3.1,48,0.00,,,0.00,WUHU216HW,2013-01-05 20:22:00,
2013-01-05 15:27:00,42.1,24.3,30.20,WSW,248,1.6,2.5,49,0.00,,,0.00,WUHU216HW,2013-01-05 20:27:00,
2013-01-05 15:32:00,42.1,24.3,30.20,NNW,338,1.1,2.2,49,0.00,,,0.00,WUHU216HW,2013-01-05 20:32:00,
2013-01-05 15:37:00,42.1,24.3,30.21,NW,315,1.6,2.2,49,0.00,,,0.00,WUHU216HW,2013-01-05 20:37:00,
2013-01-05 15:42:00,41.9,24.1,30.21,NW,315,1.1,3.1,49,0.00,,,0.00,WUHU216HW,2013-01-05 20:42:00,
2013-01-05 15:47:00,41.9,24.1,30.21,NNW,338,1.8,3.4,49,0.00,,,0.00,WUHU216HW,2013-01-05 20:47:00,
2013-01-05 15:52:00,41.8,23.9,30.21,NW,315,0.4,3.4,49,0.00,,,0.00,WUHU216HW,2013-01-05 20:52:00,
2013-01-05 15:57:00,41.8,23.9,30.21,North,0,0.9,2.0,49,0.00,,,0.00,WUHU216HW,2013-01-05 20:57:00,
2013-01-05 16:02:00,41.6,23.8,30.21,NW,315,2.5,2.5,49,0.00,,,0.00,WUHU216HW,2013-01-05 21:02:00,
2013-01-05 16:07:00,41.4,23.6,30.21,West,270,1.1,3.6,49,0.00,,,0.00,WUHU216HW,2013-01-05 21:07:00,
2013-01-05 16:12:00,41.4,23.6,30.21,NW,315,0.0,3.6,49,0.00,,,0.00,WUHU216HW,2013-01-05 21:12:00,
2013-01-05 16:17:00,41.2,23.4,30.21,WNW,293,0.9,1.8,49,0.00,,,0.00,WUHU216HW,2013-01-05 21:17:00,
2013-01-05 16:22:00,41.0,23.2,30.21,NW,315,0.2,1.6,49,0.00,,,0.00,WUHU216HW,2013-01-05 21:22:00,
2013-01-05 16:27:00,40.7,23.0,30.21,North,0,0.4,1.8,49,0.00,,,0.00,WUHU216HW,2013-01-05 21:27:00,
2013-01-05 16:32:00,40.7,23.4,30.21,SW,225,0.0,1.8,50,0.00,,,0.00,WUHU216HW,2013-01-05 21:32:00,
2013-01-05 16:37:00,40.5,23.3,30.21,SSW,203,0.0,1.1,50,0.00,,,0.00,WUHU216HW,2013-01-05 21:37:00,
2013-01-05 16:42:00,40.3,23.1,30.21,WNW,293,0.0,1.1,50,0.00,,,0.00,WUHU216HW,2013-01-05 21:42:00,
2013-01-05 16:47:00,40.1,23.0,30.21,SSW,203,0.0,0.4,50,0.00,,,0.00,WUHU216HW,2013-01-05 21:47:00,
2013-01-05 16:52:00,40.0,22.8,30.21,SE,135,0.0,0.4,50,0.00,,,0.00,WUHU216HW,2013-01-05 21:52:00,
2013-01-05 16:57:00,39.8,23.0,30.21,SSE,158,0.0,0.0,51,0.00,,,0.00,WUHU216HW,2013-01-05 21:57:00,
2013-01-05 17:02:00,39.4,22.8,30.21,ESE,113,0.0,0.7,51,0.00,,,0.00,WUHU216HW,2013-01-05 22:02:00,
2013-01-05 17:07:00,39.2,23.1,30.21,ESE,113,0.0,0.7,52,0.00,,,0.00,WUHU216HW,2013-01-05 22:07:00,
2013-01-05 17:12:00,39.1,22.9,30.21,ESE,113,0.0,0.0,52,0.00,,,0.00,WUHU216HW,2013-01-05 22:12:00,
2013-01-05 17:17:00,38.9,22.7,30.22,ESE,113,0.0,0.0,52,0.00,,,0.00,WUHU216HW,2013-01-05 22:17:00,
2013-01-05 17:22:00,38.5,22.8,30.22,ESE,113,0.0,0.0,53,0.00,,,0.00,WUHU216HW,2013-01-05 22:22:00,
2013-01-05 17:27:00,38.3,22.6,30.22,ESE,113,0.0,0.0,53,0.00,,,0.00,WUHU216HW,2013-01-05 22:27:00,
2013-01-05 17:32:00,38.2,22.9,30.23,ESE,113,0.0,0.0,54,0.00,,,0.00,WUHU216HW,2013-01-05 22:32:00,
2013-01-05 17:37:00,37.8,22.6,30.23,ENE,68,0.0,0.0,54,0.00,,,0.00,WUHU216HW,2013-01-05 22:37:00,
2013-01-05 17:42:00,37.8,22.6,30.23,ENE,68,0.0,0.0,54,0.00,,,0.00,WUHU216HW,2013-01-05 22:42:00,
2013-01-05 17:47:00,37.4,22.7,30.23,ENE,68,0.0,0.0,55,0.00,,,0.00,WUHU216HW,2013-01-05 22:47:00,
2013-01-05 17:52:00,37.3,22.5,30.23,ENE,68,0.0,0.0,55,0.00,,,0.00,WUHU216HW,2013-01-05 22:52:00,
2013-01-05 17:57:00,37.1,22.8,30.24,ENE,68,0.0,0.0,56,0.00,,,0.00,WUHU216HW,2013-01-05 22:57:00,
2013-01-05 18:02:00,36.9,22.6,30.24,ENE,68,0.0,0.0,56,0.00,,,0.00,WUHU216HW,2013-01-05 23:02:00,
2013-01-05 18:07:00,36.7,22.9,30.24,ENE,68,0.0,0.0,57,0.00,,,0.00,WUHU216HW,2013-01-05 23:07:00,
2013-01-05 18:12:00,36.5,22.8,30.24,ENE,68,0.0,0.0,57,0.00,,,0.00,WUHU216HW,2013-01-05 23:12:00,
2013-01-05 18:17:00,36.4,22.6,30.24,ENE,68,0.0,0.2,57,0.00,,,0.00,WUHU216HW,2013-01-05 23:17:00,
2013-01-05 18:22:00,36.4,23.1,30.24,ENE,68,0.0,0.2,58,0.00,,,0.00,WUHU216HW,2013-01-05 23:22:00,
2013-01-05 18:27:00,36.0,22.7,30.24,ENE,68,0.0,0.0,58,0.00,,,0.00,WUHU216HW,2013-01-05 23:27:00,
2013-01-05 18:32:00,36.0,23.1,30.24,ENE,68,0.0,0.0,59,0.00,,,0.00,WUHU216HW,2013-01-05 23:32:00,
2013-01-05 18:37:00,35.8,23.0,30.24,ENE,68,0.0,0.0,59,0.00,,,0.00,WUHU216HW,2013-01-05 23:37:00,
2013-01-05 18:42:00,35.6,22.8,30.24,ENE,68,0.0,0.0,59,0.00,,,0.00,WUHU216HW,2013-01-05 23:42:00,
2013-01-05 18:47:00,35.6,23.2,30.24,ENE,68,0.0,0.0,60,0.00,,,0.00,WUHU216HW,2013-01-05 23:47:00,
2013-01-05 18:52:00,35.5,23.0,30.24,ENE,68,0.0,0.0,60,0.00,,,0.00,WUHU216HW,2013-01-05 23:52:00,
2013-01-05 18:57:00,35.3,22.9,30.24,SSW,203,0.0,0.9,60,0.00,,,0.00,WUHU216HW,2013-01-05 23:57:00,
2013-01-05 19:02:00,35.1,22.7,30.24,SE,135,0.0,0.9,60,0.00,,,0.00,WUHU216HW,2013-01-06 00:02:00,
2013-01-05 19:07:00,34.9,22.5,30.24,West,270,0.0,0.4,60,0.00,,,0.00,WUHU216HW,2013-01-06 00:07:00,
2013-01-05 19:12:00,34.9,22.9,30.25,SSW,203,0.0,1.1,61,0.00,,,0.00,WUHU216HW,2013-01-06 00:12:00,
2013-01-05 19:17:00,34.7,22.7,30.25,SW,225,0.9,1.1,61,0.00,,,0.00,WUHU216HW,2013-01-06 00:17:00,
2013-01-05 19:22:00,34.9,23.2,30.25,WSW,248,0.7,1.1,62,0.00,,,0.00,WUHU216HW,2013-01-06 00:22:00,
2013-01-05 19:27:00,34.9,23.2,30.24,SW,225,1.6,1.6,62,0.00,,,0.00,WUHU216HW,2013-01-06 00:27:00,
2013-01-05 19:32:00,35.1,23.4,30.24,WSW,248,2.5,2.5,62,0.00,,,0.00,WUHU216HW,2013-01-06 00:32:00,
2013-01-05 19:37:00,35.3,23.6,30.24,South,180,0.4,2.5,62,0.00,,,0.00,WUHU216HW,2013-01-06 00:37:00,
2013-01-05 19:42:00,35.5,23.8,30.24,WSW,248,0.7,1.8,62,0.00,,,0.00,WUHU216HW,2013-01-06 00:42:00,
2013-01-05 19:47:00,35.5,23.8,30.24,WSW,248,0.0,2.5,62,0.00,,,0.00,WUHU216HW,2013-01-06 00:47:00,
2013-01-05 19:52:00,35.5,23.8,30.24,South,180,0.0,2.5,62,0.00,,,0.00,WUHU216HW,2013-01-06 00:52:00,
2013-01-05 19:57:00,35.5,23.8,30.24,WNW,293,0.0,2.5,62,0.00,,,0.00,WUHU216HW,2013-01-06 00:57:00,
2013-01-05 20:02:00,35.5,23.8,30.24,West,270,0.0,2.5,62,0.00,,,0.00,WUHU216HW,2013-01-06 01:02:00,
2013-01-05 20:07:00,35.5,23.8,30.24,West,270,0.0,2.0,62,0.00,,,0.00,WUHU216HW,2013-01-06 01:07:00,
2013-01-05 20:12:00,35.5,23.8,30.24,SSW,203,0.0,0.0,62,0.00,,,0.00,WUHU216HW,2013-01-06 01:12:00,
2013-01-05 20:17:00,35.3,23.6,30.24,SW,225,0.0,0.4,62,0.00,,,0.00,WUHU216HW,2013-01-06 01:17:00,
2013-01-05 20:22:00,35.3,23.6,30.24,SE,135,0.0,0.7,62,0.00,,,0.00,WUHU216HW,2013-01-06 01:22:00,
2013-01-05 20:27:00,35.1,23.4,30.23,ENE,68,0.0,0.7,62,0.00,,,0.00,WUHU216HW,2013-01-06 01:27:00,
2013-01-05 20:32:00,34.9,23.6,30.22,ESE,113,0.2,0.9,63,0.00,,,0.00,WUHU216HW,2013-01-06 01:32:00,
2013-01-05 20:37:00,34.9,23.6,30.22,ENE,68,0.0,0.9,63,0.00,,,0.00,WUHU216HW,2013-01-06 01:37:00,
2013-01-05 20:42:00,34.7,23.4,30.22,ENE,68,0.0,0.7,63,0.00,,,0.00,WUHU216HW,2013-01-06 01:42:00,
2013-01-05 20:47:00,34.6,23.2,30.22,ENE,68,0.0,0.0,63,0.00,,,0.00,WUHU216HW,2013-01-06 01:47:00,
2013-01-05 20:52:00,34.4,23.4,30.22,ENE,68,0.4,0.4,64,0.00,,,0.00,WUHU216HW,2013-01-06 01:52:00,
2013-01-05 20:57:00,34.2,23.2,30.22,ENE,68,0.0,0.4,64,0.00,,,0.00,WUHU216HW,2013-01-06 01:57:00,
2013-01-05 21:02:00,34.2,23.2,30.22,ENE,68,0.0,0.4,64,0.00,,,0.00,WUHU216HW,2013-01-06 02:02:00,
2013-01-05 21:07:00,34.0,23.4,30.22,ENE,68,0.0,0.0,65,0.00,,,0.00,WUHU216HW,2013-01-06 02:07:00,
2013-01-05 21:12:00,33.8,23.2,30.22,ENE,68,0.0,0.0,65,0.00,,,0.00,WUHU216HW,2013-01-06 02:12:00,
2013-01-05 21:17:00,33.7,23.0,30.23,ENE,68,0.0,0.0,65,0.00,,,0.00,WUHU216HW,2013-01-06 02:17:00,
2013-01-05 21:22:00,33.5,23.2,30.22,ENE,68,0.0,0.4,66,0.00,,,0.00,WUHU216HW,2013-01-06 02:22:00,
2013-01-05 21:27:00,33.5,23.2,30.22,ENE,68,0.0,0.4,66,0.00,,,0.00,WUHU216HW,2013-01-06 02:27:00,
2013-01-05 21:32:00,33.5,23.2,30.22,ENE,68,0.0,0.4,66,0.00,,,0.00,WUHU216HW,2013-01-06 02:32:00,
2013-01-05 21:37:00,33.5,23.2,30.23,ENE,68,0.0,0.4,66,0.00,,,0.00,WUHU216HW,2013-01-06 02:37:00,
2013-01-05 21:42:00,33.5,23.6,30.23,ENE,68,0.0,0.0,67,0.00,,,0.00,WUHU216HW,2013-01-06 02:42:00,
2013-01-05 21:47:00,33.3,23.5,30.23,ENE,68,0.0,0.0,67,0.00,,,0.00,WUHU216HW,2013-01-06 02:47:00,
2013-01-05 21:52:00,33.3,23.5,30.23,ENE,68,0.2,0.2,67,0.00,,,0.00,WUHU216HW,2013-01-06 02:52:00,
2013-01-05 21:57:00,33.1,23.3,30.22,ENE,68,0.0,0.2,67,0.00,,,0.00,WUHU216HW,2013-01-06 02:57:00,
2013-01-05 22:02:00,33.1,23.3,30.22,ENE,68,0.0,0.2,67,0.00,,,0.00,WUHU216HW,2013-01-06 03:02:00,
2013-01-05 22:07:00,33.1,23.3,30.21,SE,135,0.0,0.2,67,0.00,,,0.00,WUHU216HW,2013-01-06 03:07:00,
2013-01-05 22:12:00,33.1,23.7,30.21,ENE,68,0.0,0.2,68,0.00,,,0.00,WUHU216HW,2013-01-06 03:12:00,
2013-01-05 22:17:00,32.9,23.5,30.21,ESE,113,0.0,0.0,68,0.00,,,0.00,WUHU216HW,2013-01-06 03:17:00,
2013-01-05 22:22:00,32.9,23.5,30.21,ENE,68,0.0,0.0,68,0.00,,,0.00,WUHU216HW,2013-01-06 03:22:00,
2013-01-05 22:27:00,32.9,23.5,30.21,ENE,68,0.0,0.0,68,0.00,,,0.00,WUHU216HW,2013-01-06 03:27:00,
2013-01-05 22:32:00,32.9,23.5,30.21,ENE,68,0.0,0.0,68,0.00,,,0.00,WUHU216HW,2013-01-06 03:32:00,
2013-01-05 22:37:00,32.9,23.9,30.20,ENE,68,0.0,0.0,69,0.00,,,0.00,WUHU216HW,2013-01-06 03:37:00,
2013-01-05 22:42:00,32.9,23.9,30.19,ENE,68,0.0,0.0,69,0.00,,,0.00,WUHU216HW,2013-01-06 03:42:00,
2013-01-05 22:47:00,32.9,23.9,30.20,ENE,68,0.0,0.0,69,0.00,,,0.00,WUHU216HW,2013-01-06 03:47:00,
2013-01-05 22:52:00,32.9,23.9,30.20,SSE,158,0.0,0.0,69,0.00,,,0.00,WUHU216HW,2013-01-06 03:52:00,
2013-01-05 22:57:00,32.9,24.2,30.20,SSE,158,0.0,0.0,70,0.00,,,0.00,WUHU216HW,2013-01-06 03:57:00,
2013-01-05 23:02:00,33.1,24.4,30.20,SSE,158,0.0,0.0,70,0.00,,,0.00,WUHU216HW,2013-01-06 04:02:00,
2013-01-05 23:07:00,33.1,24.4,30.20,SE,135,0.0,0.0,70,0.00,,,0.00,WUHU216HW,2013-01-06 04:07:00,
2013-01-05 23:12:00,33.1,24.0,30.20,SE,135,0.0,0.0,69,0.00,,,0.00,WUHU216HW,2013-01-06 04:12:00,
2013-01-05 23:17:00,33.3,24.2,30.20,SSW,203,0.2,0.9,69,0.00,,,0.00,WUHU216HW,2013-01-06 04:17:00,
2013-01-05 23:22:00,33.5,24.7,30.20,WSW,248,0.4,0.9,70,0.00,,,0.00,WUHU216HW,2013-01-06 04:22:00,
2013-01-05 23:27:00,33.5,24.7,30.20,NW,315,0.4,1.8,70,0.00,,,0.00,WUHU216HW,2013-01-06 04:27:00,
2013-01-05 23:32:00,33.7,24.5,30.19,South,180,0.0,1.8,69,0.00,,,0.00,WUHU216HW,2013-01-06 04:32:00,
2013-01-05 23:37:00,33.8,25.0,30.18,SW,225,0.0,0.9,70,0.00,,,0.00,WUHU216HW,2013-01-06 04:37:00,
2013-01-05 23:42:00,34.0,24.8,30.18,West,270,0.0,0.7,69,0.00,,,0.00,WUHU216HW,2013-01-06 04:42:00,
2013-01-05 23:47:00,34.2,25.0,30.18,SW,225,0.4,0.7,69,0.00,,,0.00,WUHU216HW,2013-01-06 04:47:00,
2013-01-05 23:52:00,34.2,25.0,30.17,SSW,203,0.0,1.6,69,0.00,,,0.00,WUHU216HW,2013-01-06 04:52:00,
2013-01-05 23:57:00,34.4,24.8,30.18,West,270,0.2,1.6,68,0.00,,,0.00,WUHU216HW,2013-01-06 04:57:00,